Погода в Финспонге

Швеция     58°42′15″N   15°46′20″E
темп.,
°C
ветер,
м/с
пор.,
м/с
влажн.,
%
обл.,
%
осадки,
мм/ч
давл.,
гПа
погр.,
м
13 мая, чт
чт1323:00+11юв397984 0.0 1008194
02:00+10юв268664 0.0 1008109
05:00+9юв238844 0.0 100769
08:00+16вюв24675 0.0 1007294
11:00+20вюв475597 0.0 1007824
14:00+22вюв56390 0.0 10061558
17:00+20вюв46364 0.0 10061203
20:00+16вюв265755 0.0 1006248
14 мая, пт
пт1423:00+13в266469 0.0 1006199
02:00+9в278811 0.0 1006154
05:00+8в1298100 0.0 100646
08:00+13в1271100 0.0 1006358
11:00+18в2444100 0.0 10061540
14:00+14юв3669100 0.3 1005292
17:00+11всв1494100 1.5 1006278
20:00+11вюв2489100 2.1 1005224
15 мая, сб
сб1523:00+8в1197100 0.2 100510
02:00+9с2496100 0.4 1005170
05:00+8с3798100 2.1 1004348
08:00+8с4897100 5.1 1004466
11:00+8ссв2395100 1.4 1004457
14:00+9зсз1190100 1.5 1004450
17:00+11юз0177100 0.0 1004764
20:00+11всв238388 0.1 1004215
16 мая, вс
вс1623:00+9юв129677 0.1 100552
02:00+9юз2496100 0.1 1006185
05:00+7юз2398100 0.0 100778
08:00+11ю237181 0.0 1007443
11:00+15юв3559100 0.0 10071094
14:00+12ю3673100 0.2 1008490
17:00+12ююв3871100 0.1 1007562
20:00+11вюв3772100 0.1 1006634
17 мая, пн
пн1723:00+10вюв3982100 0.0 1006634
02:00+9в2596100 0.2 1005250
05:00+9юз0199100 1.8 100380
08:00+10зюз2390100 2.1 1003372
11:00+13зюз356196 0.1 10031346
14:00+15ю355150 0.2 10031498
17:00+16ююв454866 0.0 10031783
20:00+13ююв377733 0.6 1004290